�������l�o���
Date,Time,MP-1(��Sv/h),MP-2(��Sv/h),MP-3(��Sv/h),MP-4(��Sv/h),MP-5(��Sv/h),MP-6(��Sv/h),MP-7(��Sv/h),MP-8(��Sv/h),����,����(m/s),���J
2019/08/20,00:00,0.781,1.111,0.769,1.384,1.018,0.434,0.763,0.716,�쓌,3.7,��
2019/08/20,00:10,0.782,1.113,0.769,1.383,1.016,0.432,0.763,0.717,�쓌,3.7,��
2019/08/20,00:20,0.781,1.111,0.769,1.379,1.016,0.432,0.761,0.716,�쓌,4.1,�L
2019/08/20,00:30,0.781,1.111,0.770,1.379,1.018,0.433,0.761,0.718,�쓌,4.3,��
2019/08/20,00:40,0.781,1.112,0.771,1.379,1.015,0.434,0.761,0.716,���쓌,4.4,�L
2019/08/20,00:50,0.783,1.112,0.768,1.381,1.016,0.433,0.761,0.715,���쓌,3.2,�L
2019/08/20,01:00,0.780,1.111,0.770,1.379,1.016,0.434,0.760,0.715,�쓌,3.8,��
2019/08/20,01:10,0.782,1.111,0.770,1.380,1.016,0.433,0.762,0.718,�쓌,3.4,��
2019/08/20,01:20,0.780,1.109,0.770,1.380,1.016,0.432,0.761,0.716,�쓌,3.4,�L
2019/08/20,01:30,0.780,1.112,0.767,1.379,1.015,0.433,0.761,0.718,�쓌,4.0,��
2019/08/20,01:40,0.781,1.111,0.770,1.377,1.015,0.432,0.762,0.716,���쓌,3.6,��
2019/08/20,01:50,0.782,1.112,0.772,1.379,1.014,0.434,0.763,0.714,�쓌,3.6,��
2019/08/20,02:00,0.781,1.110,0.769,1.379,1.016,0.431,0.762,0.718,�쓌,3.9,��
2019/08/20,02:10,0.782,1.113,0.769,1.379,1.017,0.431,0.762,0.716,���쓌,5.0,��
2019/08/20,02:20,0.781,1.107,0.768,1.379,1.015,0.433,0.761,0.716,���쓌,4.3,��
2019/08/20,02:30,0.780,1.109,0.771,1.377,1.015,0.433,0.760,0.716,���쓌,3.7,�L
2019/08/20,02:40,0.782,1.109,0.770,1.378,1.016,0.433,0.762,0.715,���쓌,4.0,�L
2019/08/20,02:50,0.782,1.111,0.772,1.379,1.017,0.435,0.761,0.716,��,4.8,�L
2019/08/20,03:00,0.781,1.110,0.769,1.381,1.016,0.433,0.762,0.716,���쓌,4.4,�L
2019/08/20,03:10,0.781,1.110,0.772,1.379,1.017,0.433,0.762,0.717,���쓌,4.9,�L
2019/08/20,03:20,0.782,1.107,0.770,1.380,1.015,0.433,0.763,0.716,���쓌,5.1,�L
2019/08/20,03:30,0.782,1.110,0.773,1.381,1.015,0.435,0.762,0.717,���쓌,5.1,�L
2019/08/20,03:40,0.782,1.110,0.771,1.379,1.015,0.433,0.762,0.716,���쓌,4.6,��
2019/08/20,03:50,0.781,1.107,0.770,1.380,1.015,0.434,0.761,0.714,�쓌,3.9,��
2019/08/20,04:00,0.782,1.109,0.771,1.380,1.016,0.434,0.760,0.718,�쓌,3.6,��
2019/08/20,04:10,0.782,1.106,0.770,1.379,1.014,0.430,0.762,0.716,�쓌,3.8,��
2019/08/20,04:20,0.781,1.110,0.771,1.380,1.014,0.435,0.761,0.718,�쓌,3.1,��
2019/08/20,04:30,0.781,1.109,0.770,1.380,1.016,0.433,0.763,0.716,���쓌,3.2,��
2019/08/20,04:40,0.780,1.110,0.770,1.379,1.016,0.432,0.760,0.717,���쓌,2.9,��
2019/08/20,04:50,0.779,1.109,0.770,1.378,1.013,0.432,0.762,0.714,�쓌,4.0,��
2019/08/20,05:00,0.780,1.107,0.768,1.377,1.014,0.433,0.762,0.716,��쓌,4.4,��
2019/08/20,05:10,0.780,1.107,0.770,1.378,1.014,0.432,0.762,0.715,�쓌,4.6,��
2019/08/20,05:20,0.780,1.106,0.770,1.379,1.013,0.432,0.762,0.717,�쓌,5.4,��
2019/08/20,05:30,0.781,1.109,0.770,1.379,1.012,0.432,0.761,0.718,��쓌,4.8,��
2019/08/20,05:40,0.778,1.106,0.769,1.381,1.012,0.432,0.760,0.716,��쓌,3.9,�L
2019/08/20,05:50,0.780,1.107,0.770,1.378,1.013,0.431,0.761,0.717,��쓌,5.1,��
2019/08/20,06:00,0.779,1.107,0.771,1.376,1.012,0.432,0.761,0.715,��쓌,4.9,��
2019/08/20,06:10,0.781,1.106,0.770,1.380,1.015,0.431,0.761,0.714,��쓌,4.7,��
2019/08/20,06:20,0.781,1.106,0.769,1.379,1.015,0.432,0.760,0.716,��쓌,3.6,��
2019/08/20,06:30,0.780,1.107,0.768,1.378,1.014,0.432,0.761,0.717,�쓌,3.1,��
2019/08/20,06:40,0.780,1.105,0.768,1.379,1.017,0.432,0.762,0.716,�쓌,3.9,��
2019/08/20,06:50,0.779,1.108,0.768,1.377,1.014,0.432,0.762,0.716,��쓌,2.8,��
2019/08/20,07:00,0.783,1.105,0.769,1.380,1.016,0.432,0.761,0.716,�쓌,2.8,��
2019/08/20,07:10,0.782,1.106,0.767,1.378,1.018,0.431,0.762,0.717,�쓌,3.7,��
2019/08/20,07:20,0.781,1.105,0.768,1.377,1.015,0.431,0.763,0.716,��쓌,4.4,��
2019/08/20,07:30,0.782,1.105,0.768,1.379,1.015,0.433,0.762,0.717,��쓌,3.8,��
2019/08/20,07:40,0.780,1.108,0.769,1.380,1.015,0.432,0.762,0.716,��쓌,3.8,��
2019/08/20,07:50,0.781,1.106,0.766,1.378,1.016,0.433,0.764,0.716,��쓌,4.6,��
2019/08/20,08:00,0.783,1.107,0.768,1.381,1.016,0.432,0.761,0.717,��쓌,4.2,��
2019/08/20,08:10,0.783,1.107,0.768,1.380,1.017,0.432,0.762,0.717,��쓌,5.5,��
2019/08/20,08:20,0.782,1.106,0.768,1.378,1.015,0.433,0.761,0.717,��쓌,4.5,��
2019/08/20,08:30,0.781,1.104,0.768,1.379,1.017,0.433,0.763,0.716,��쓌,4.0,��
2019/08/20,08:40,0.783,1.103,0.767,1.377,1.015,0.434,0.762,0.717,��쓌,4.8,��
2019/08/20,08:50,0.782,1.102,0.767,1.382,1.014,0.433,0.762,0.717,��쓌,5.4,��
2019/08/20,09:00,0.783,1.106,0.770,1.379,1.017,0.432,0.762,0.717,��쓌,6.0,��
2019/08/20,09:10,0.783,1.104,0.771,1.378,1.015,0.434,0.762,0.716,��쓌,5.3,��
2019/08/20,09:20,0.783,1.104,0.765,1.380,1.015,0.433,0.763,0.716,��,6.0,��
2019/08/20,09:30,0.781,1.105,0.769,1.379,1.013,0.433,0.763,0.716,��쓌,5.4,��
2019/08/20,09:40,0.782,1.102,0.767,1.376,1.016,0.433,0.762,0.717,��쓌,6.7,��
2019/08/20,09:50,0.783,1.105,0.768,1.380,1.017,0.433,0.762,0.718,��쓌,5.2,��
2019/08/20,10:00,0.786,1.103,0.769,1.381,1.014,0.433,0.762,0.717,��,5.9,��
2019/08/20,10:10,0.787,1.103,0.764,1.380,1.015,0.434,0.763,0.716,��쓌,7.6,��
2019/08/20,10:20,0.786,1.104,0.769,1.380,1.016,0.433,0.762,0.718,��쓌,7.1,��
2019/08/20,10:30,0.783,1.103,0.767,1.378,1.018,0.431,0.763,0.719,��쓌,6.3,��
2019/08/20,10:40,0.781,1.106,0.766,1.380,1.015,0.434,0.763,0.718,��쓌,6.5,��
2019/08/20,10:50,0.784,1.107,0.769,1.381,1.017,0.433,0.762,0.716,��쓌,5.6,��
2019/08/20,11:00,0.783,1.106,0.767,1.381,1.016,0.434,0.764,0.716,��쓌,7.4,��
2019/08/20,11:10,0.781,1.107,0.768,1.381,1.017,0.434,0.765,0.714,��쓌,7.0,��
2019/08/20,11:20,0.783,1.106,0.768,1.381,1.016,0.431,0.764,0.716,��쓌,7.5,��
2019/08/20,11:30,0.784,1.111,0.771,1.381,1.020,0.431,0.762,0.714,��쓌,8.2,��
2019/08/20,11:40,0.783,1.112,0.770,1.382,1.017,0.434,0.764,0.717,��,6.3,��
2019/08/20,11:50,0.783,1.111,0.771,1.379,1.019,0.434,0.764,0.715,��쓌,6.1,��
2019/08/20,12:00,0.781,1.112,0.767,1.380,1.017,0.435,0.765,0.716,��쓌,6.6,��
2019/08/20,12:10,0.783,1.111,0.772,1.382,1.018,0.433,0.761,0.715,��쓌,6.4,�L
2019/08/20,12:20,0.784,1.111,0.770,1.379,1.017,0.435,0.762,0.716,��쓌,7.0,�L
2019/08/20,12:30,0.783,1.111,0.772,1.380,1.017,0.435,0.762,0.717,��,6.2,�L
2019/08/20,12:40,0.782,1.108,0.771,1.381,1.018,0.434,0.762,0.715,��,6.4,�L
2019/08/20,12:50,0.782,1.109,0.769,1.380,1.019,0.435,0.760,0.717,��쓌,5.7,��
2019/08/20,13:00,0.783,1.109,0.770,1.380,1.017,0.435,0.762,0.718,��,5.6,��
2019/08/20,13:10,0.784,1.108,0.769,1.381,1.018,0.435,0.763,0.716,��쓌,4.9,�L
2019/08/20,13:20,0.783,1.106,0.771,1.380,1.016,0.436,0.763,0.716,��,5.4,�L
2019/08/20,13:30,0.781,1.105,0.768,1.379,1.018,0.435,0.762,0.716,��,4.1,�L
2019/08/20,13:40,0.783,1.104,0.770,1.379,1.018,0.435,0.762,0.716,��,2.6,�L
2019/08/20,13:50,0.783,1.108,0.769,1.380,1.017,0.435,0.762,0.718,��쓌,3.9,�L
2019/08/20,14:00,0.782,1.106,0.769,1.378,1.018,0.436,0.763,0.717,��쓌,5.4,�L
2019/08/20,14:10,0.785,1.106,0.769,1.378,1.018,0.434,0.762,0.718,��쓌,5.1,�L
2019/08/20,14:20,0.784,1.107,0.769,1.381,1.019,0.434,0.763,0.716,��쓌,5.7,�L
2019/08/20,14:30,0.781,1.101,0.767,1.378,1.011,0.435,0.763,0.715,��쓌,6.3,�L
2019/08/20,14:40,0.781,1.098,0.767,1.377,1.010,0.434,0.759,0.717,��,4.6,�L
2019/08/20,14:50,0.778,1.097,0.768,1.376,1.004,0.435,0.759,0.715,��,4.6,�L
2019/08/20,15:00,0.774,1.090,0.765,1.368,1.000,0.432,0.756,0.714,��쐼,4.2,�L
2019/08/20,15:10,0.775,1.086,0.763,1.366,0.995,0.433,0.757,0.711,��쐼,2.6,�L
2019/08/20,15:20,0.769,1.081,0.760,1.362,0.989,0.431,0.756,0.712,-,CALM,�L
2019/08/20,15:30,0.769,1.078,0.758,1.359,0.989,0.431,0.753,0.711,��쐼,2.6,�L
2019/08/20,15:40,0.768,1.075,0.757,1.354,0.987,0.432,0.754,0.710,��,4.5,�L
2019/08/20,15:50,0.766,1.070,0.757,1.348,0.981,0.433,0.753,0.709,-,CALM,�L
2019/08/20,16:00,0.765,1.066,0.752,1.342,0.978,0.433,0.750,0.706,-,CALM,�L
2019/08/20,16:10,0.766,1.066,0.754,1.340,0.976,0.433,0.750,0.707,-,CALM,�L
2019/08/20,16:20,0.767,1.064,0.750,1.336,0.976,0.433,0.748,0.707,��쓌,8.7,�L
2019/08/20,16:30,0.767,1.065,0.753,1.338,0.976,0.433,0.750,0.706,��,6.2,�L
2019/08/20,16:40,0.769,1.066,0.752,1.336,0.980,0.435,0.749,0.706,��쐼,3.5,�L
2019/08/20,16:50,0.767,1.071,0.751,1.337,0.978,0.433,0.750,0.707,��,2.5,��
2019/08/20,17:00,0.765,1.067,0.751,1.333,0.976,0.433,0.750,0.706,��,2.6,�L
2019/08/20,17:10,0.766,1.064,0.748,1.336,0.974,0.431,0.750,0.705,��,2.9,�L
2019/08/20,17:20,0.763,1.065,0.748,1.336,0.976,0.430,0.750,0.706,��,1.5,�L
2019/08/20,17:30,0.763,1.061,0.748,1.334,0.975,0.430,0.747,0.704,�쓌,2.3,�L
2019/08/20,17:40,0.760,1.063,0.746,1.331,0.971,0.429,0.750,0.705,�쓌,1.5,�L
2019/08/20,17:50,0.758,1.061,0.746,1.333,0.971,0.429,0.749,0.705,�쓌,2.3,��
2019/08/20,18:00,0.757,1.060,0.745,1.329,0.972,0.427,0.748,0.705,��,4.4,��
2019/08/20,18:10,0.758,1.060,0.745,1.332,0.970,0.427,0.748,0.704,��쐼,5.6,��
2019/08/20,18:20,0.756,1.059,0.744,1.329,0.970,0.428,0.748,0.704,��쐼,5.3,��
2019/08/20,18:30,0.756,1.059,0.745,1.329,0.969,0.427,0.749,0.706,��쐼,5.4,��
2019/08/20,18:40,0.755,1.057,0.743,1.330,0.969,0.426,0.748,0.704,��쐼,4.4,��
2019/08/20,18:50,0.755,1.057,0.742,1.333,0.969,0.426,0.747,0.705,�쐼,3.5,��
2019/08/20,19:00,0.756,1.058,0.743,1.330,0.969,0.426,0.749,0.705,���쐼,2.3,��
2019/08/20,19:10,0.753,1.059,0.744,1.332,0.968,0.426,0.747,0.706,�쐼,0.9,��
2019/08/20,19:20,0.755,1.060,0.742,1.329,0.969,0.425,0.747,0.705,���k��,1.2,��
2019/08/20,19:30,0.756,1.057,0.745,1.328,0.970,0.426,0.749,0.708,�k��,1.9,��
2019/08/20,19:40,0.756,1.060,0.743,1.332,0.971,0.428,0.747,0.705,�k��,3.2,��
2019/08/20,19:50,0.759,1.061,0.745,1.332,0.971,0.427,0.748,0.706,�k��,3.7,��
2019/08/20,20:00,0.756,1.061,0.744,1.332,0.970,0.428,0.748,0.706,�k�k��,3.7,��
2019/08/20,20:10,0.758,1.061,0.744,1.329,0.971,0.427,0.748,0.704,�k�k��,2.6,��
2019/08/20,20:20,0.757,1.062,0.744,1.331,0.972,0.428,0.750,0.705,�k�k��,1.2,��
2019/08/20,20:30,0.757,1.060,0.744,1.332,0.971,0.427,0.749,0.707,-,CALM,��
2019/08/20,20:40,0.758,1.063,0.747,1.331,0.972,0.427,0.750,0.706,-,CALM,��
2019/08/20,20:50,0.757,1.063,0.744,1.333,0.973,0.426,0.749,0.706,��쐼,0.8,��
2019/08/20,21:00,0.756,1.061,0.743,1.329,0.971,0.428,0.748,0.706,-,CALM,��
2019/08/20,21:10,0.756,1.061,0.745,1.332,0.969,0.426,0.749,0.706,�k,1.4,��
2019/08/20,21:20,0.757,1.060,0.743,1.332,0.973,0.428,0.750,0.705,�k,2.0,��
2019/08/20,21:30,0.758,1.062,0.743,1.332,0.973,0.427,0.750,0.708,�k,1.5,��
2019/08/20,21:40,0.756,1.061,0.744,1.330,0.973,0.427,0.749,0.707,�k�k��,1.9,��
2019/08/20,21:50,0.758,1.061,0.743,1.334,0.971,0.427,0.749,0.706,�k�k��,2.0,��
2019/08/20,22:00,0.759,1.059,0.745,1.330,0.971,0.426,0.750,0.707,�k,2.3,��
2019/08/20,22:10,0.757,1.058,0.744,1.332,0.972,0.427,0.749,0.706,�k��,1.9,��
2019/08/20,22:20,0.757,1.062,0.745,1.334,0.972,0.427,0.750,0.706,��,1.5,��
2019/08/20,22:30,0.761,1.061,0.745,1.331,0.970,0.428,0.748,0.705,���k��,1.2,��
2019/08/20,22:40,0.759,1.060,0.745,1.332,0.973,0.427,0.748,0.707,��,1.9,��
2019/08/20,22:50,0.757,1.062,0.743,1.332,0.974,0.427,0.749,0.706,���쐼,2.2,��
2019/08/20,23:00,0.760,1.062,0.747,1.333,0.972,0.428,0.751,0.706,���k��,2.2,��
2019/08/20,23:10,0.760,1.063,0.743,1.336,0.972,0.428,0.749,0.708,�k��,3.8,��
2019/08/20,23:20,0.759,1.063,0.744,1.332,0.972,0.428,0.749,0.705,�k�k��,3.9,��
2019/08/20,23:30,0.759,1.062,0.745,1.334,0.972,0.427,0.749,0.705,�k��,5.1,��
2019/08/20,23:40,0.758,1.064,0.745,1.332,0.972,0.427,0.750,0.707,�k�k��,4.9,��
2019/08/20,23:50,0.757,1.061,0.745,1.331,0.974,0.429,0.750,0.707,�k��,4.9,��
